COSMOS 2251 DEB, 34796

Orbit data source: Space-Track

COSMOS 2251 DEB, 34796 is space debris in LEO originally from a launch on Wed, 16 Jun 1993 UTC launched from the Plesetsk Missile And Space Complex (PKMTR). The debris from Iridium 33, an American commercial communications satellite, has been tracked extensively since its accidental collision with the defunct Russian satellite Cosmos 2251 in 2009. This event, occurring at high speed in low Earth orbit (LEO), generated thousands of pieces of space debris, significantly increasing the risk of further collisions. The Iridium 33 debris cloud has impacted space traffic management and orbital debris mitigation strategies, making it a subject of ongoing study in space situational awareness.

Loading next visibility...
Identifier
34796, 1993-036AAZ
Orbit
LEO
Country
Flag of CISCIS
Related business
Manufacturer
Unknown
Mission
Spacecraft
Bus & Motor
Unknown
Mass
Unknown
Launch date (UTC)
1993-06-16 (33 years ago)
Launch vehicle
Unknown
Launch site
Plesetsk Missile And Space Complex (PKMTR)
Object type
Payload
Rocket body
Debris
Shape & HBR
Unknown shape, 0.1 m
Radar Cross Section
Small (<0.1 m²)

Expand to show TLE details & history
Last TLE update: 9 hours ago

TLE from 9 hours ago
0 COSMOS 2251 DEB
1 34796U 93036AAZ 26208.26909973  .00001548  00000-0  38499-3 0  9997
2 34796  74.0296 151.2047 0099278 198.7485 312.5687 14.49706741913093
Epoch: 2026-07-27T06:27Z
TLE epoch observation values (Epoch: 2026-07-27T06:27:30.216Z)
Latitude
28.33471°
Longitude
-79.45532°
Altitude
682.459 km
Speed
7.543 km/s
True Right ascension
21h 29m 30s
True Declination
28° 11' 23"
Sunlit
Object was in full shadow at epoch
Visualization orbit readout
Latitude
Unknown
Longitude
Unknown
Altitude
Unknown
Speed
Unknown
Apparent Right ascension
Unknown
Apparent Declination
Unknown
Sunlit
N/A
Visualization observer readout
Local Sidereal Time
04:38:51
Azimuth
Unknown
Elevation
Unknown
Doppler factor
Unknown
Orbital elements
Apogee altitude
794.726 km
Perigee altitude
653.705 km
Semi-major axis
7,102.353 km
Eccentricity
0.00993
Inclination
74.0296°
RAAN
151.2047°
Arg. of periapsis
198.7485°
True anomaly
311.7238°
Mean anomaly
312.5687°
Eccentric anomaly
312.14696°
Mean motion
3.6261 °/min
Orbital period
99.28 mins
BSTAR
0.00038499
Loading maneuver chart data...
Computing Atmospheric mass density...

Documentation

Showing up to 5 results
|